Location: *
(47.6569°N, 7.4256°E)
Time: 20:15:27
(UTC+00:00)

CZ-4C R/B - Pass Details

Date: 14 December 2019
Orbit: 646 x 1356 km, 63.4° (Epoch: 28 January)

Event Time Altitude Azimuth Distance (km) Brightness Sun altitude
Rises 19:30:29 0° 239° (WSW) 3,123 5.8 -37.9°
Reaches altitude 10° 19:32:45 10° 245° (WSW) 2,276 5.0 -38.2°
Enters shadow 19:34:36 22° 255° (WSW) 1,653 4.2 -38.5°
